This is the latest recevied weather packets stored in our database for station/object N1ADJ. If no packets are shown the sender has not sent any weather packets the latest 10 day(s).
| Time | Temp. | Humidity | Pressure | Rain* | Wind** | Luminosity | Snow |
|---|---|---|---|---|---|---|---|
| 1777762817 | 10° C | 88% | 1010.6 hPa | 0 mm | - | - | - |
| 1777757117 | 10.56° C | 85% | 1010.7 hPa | 0 mm | - | - | - |
| 1777755712 | 10.56° C | 83% | 1010.7 hPa | 0 mm | - | - | - |
| 1777755711 | 10.56° C | 82% | 1010.7 hPa | 0 mm | - | - | - |
| 1777742419 | 10° C | 89% | 1011.7 hPa | 0 mm | - | - | - |
| 1777741521 | 10° C | 89% | 1011.6 hPa | 0 mm | - | - | - |
| 1777740617 | 9.44° C | 89% | 1011.6 hPa | 0 mm | - | - | - |
| 1777740317 | 10° C | 89% | 1011.6 hPa | 0 mm | - | - | - |
| 1777739417 | 10° C | 87% | 1011.9 hPa | 0 mm | - | - | - |
| 1777735816 | 8.33° C | 93% | 1012 hPa | 0.25 mm | - | - | - |
| 1777731318 | 7.78° C | 92% | 1013.1 hPa | 0.76 mm | - | - | - |
| 1777730421 | 7.22° C | 91% | 1013.2 hPa | 0.51 mm | - | - | - |
| 1777729819 | 7.22° C | 91% | 1013.3 hPa | 0.51 mm | - | - | - |
| 1777729239 | 7.22° C | 91% | 1013.5 hPa | 0 mm | - | - | - |
| 1777728024 | 7.22° C | 91% | 1013.6 hPa | 0.25 mm | - | - | - |
| 1777727119 | 7.22° C | 92% | 1013.3 hPa | 0.25 mm | - | - | - |
| 1777726519 | 7.22° C | 91% | 1013.2 hPa | 0.25 mm | - | - | - |
| 1777726224 | 7.22° C | 91% | 1013.2 hPa | 0.25 mm | - | - | - |
| 1777722620 | 6.11° C | 93% | 1013.4 hPa | 0 mm | - | - | - |
| 1777720220 | 5° C | 93% | 1013.3 hPa | 0 mm | - | - | - |
| 1777719019 | 4.44° C | 93% | 1013.1 hPa | 0 mm | - | - | - |
| 1777718120 | 3.89° C | 93% | 1012.6 hPa | 0 mm | - | - | - |
| 1777715118 | 2.78° C | 89% | 1012.2 hPa | 0 mm | - | - | - |
| 1777714861 | 2.78° C | 89% | 1012.2 hPa | 0 mm | - | - | - |
| 1777713318 | 3.89° C | 89% | 1012.1 hPa | 0 mm | - | - | - |
* Rain latest hour (hover to see other rain measurements)
** Current wind speed in m/s (hover to see current wind gust speed)